Clinton, AR

7:19 AM CDT on May 20, 2018 (GMT -0500)
Clinton

Weather History for KCCA - May, 2014

Change the Weather History Date:

Wednesday, May 7, 2014

  Actual Average (WUND) Record (WUND)
Temperature  
Mean Temperature 72 °F -  
Max Temperature 82 °F - - (-1)
Min Temperature 62 °F - - (-1)
Cooling Degree Days 7    
Growing Degree Days 22 (Base 50)    
Moisture  
Dew Point 63 °F    
Average Humidity 74    
Maximum Humidity 94    
Minimum Humidity 54    
Precipitation  
Precipitation 0.00 in - - ()
Sea Level Pressure  
Sea Level Pressure 29.87 in    
Wind  
Wind Speed 5 mph (SSE)    
Max Wind Speed 15 mph    
Max Gust Speed 23 mph    
Visibility 7 miles    
Events      
Averages and records for this station are not official NWS values.
T = Trace of Precipitation, MM = Missing Value Source: NWS Daily Summary

Daily Weather History Graph

Daily Weather History Graph

Search for Another Location

Airport or City:

Astronomy

May. 07, 2014 Rise Set
Actual Time 6:11 AM CDT 8:01 PM CDT
Civil Twilight 5:44 AM CDT 8:29 PM CDT
Nautical Twilight 5:10 AM CDT 9:02 PM CDT
Astronomical Twilight 4:34 AM CDT 9:38 PM CDT
Moon 1:20 PM CDT (5/7) 1:56 AM CDT (5/7)
Length of Visible Light 14h 45m
Length of Day
13h 49m
First Quarter, 55% of the Moon is Illuminated
May 7
First Quarter
May 14
Full
May 21
Last Quarter
May 28
New
Jun 5
First Quarter

Hourly Weather History & Observations

Time (CDT) Temp. Heat Index Dew Point Humidity Pressure Visibility Wind Dir Wind Speed Gust Speed Precip Events Conditions
12:15 AM 62.6 °F - 60.8 °F 94% 29.83 in 7.0 mi Calm Calm - N/A   Clear
12:35 AM 62.6 °F - 60.8 °F 94% 29.84 in 7.0 mi Calm Calm - N/A   Clear
12:55 AM 62.6 °F - 60.8 °F 94% 29.83 in 7.0 mi Calm Calm - N/A   Clear
1:15 AM 64.4 °F - 60.8 °F 88% 29.83 in 7.0 mi ESE 3.5 mph - N/A   Clear
1:35 AM 64.4 °F - 60.8 °F 88% 29.83 in 7.0 mi SE 3.5 mph - N/A   Clear
1:55 AM 66.2 °F - 60.8 °F 83% 29.82 in 7.0 mi SE 4.6 mph - N/A   Clear
2:15 AM 64.4 °F - 60.8 °F 88% 29.82 in 7.0 mi SE 4.6 mph - N/A   Clear
2:35 AM 66.2 °F - 60.8 °F 83% 29.82 in 7.0 mi SE 5.8 mph - N/A   Clear
2:55 AM 66.2 °F - 60.8 °F 83% 29.82 in 7.0 mi SE 3.5 mph - N/A   Clear
3:15 AM 66.2 °F - 60.8 °F 83% 29.81 in 7.0 mi SSE 4.6 mph - N/A   Clear
3:35 AM 66.2 °F - 60.8 °F 83% 29.82 in 7.0 mi SSE 3.5 mph - N/A   Clear
3:55 AM 66.2 °F - 60.8 °F 83% 29.82 in 7.0 mi SSE 4.6 mph - N/A   Clear
4:15 AM 66.2 °F - 60.8 °F 83% 29.82 in 7.0 mi SE 4.6 mph - N/A   Clear
4:35 AM 66.2 °F - 60.8 °F 83% 29.83 in 7.0 mi SSE 5.8 mph - N/A   Clear
4:55 AM 68.0 °F - 60.8 °F 78% 29.83 in 7.0 mi SSE 6.9 mph - N/A   Clear
5:15 AM 66.2 °F - 60.8 °F 83% 29.84 in 7.0 mi SSE 5.8 mph - N/A   Clear
5:35 AM 66.2 °F - 60.8 °F 83% 29.84 in 7.0 mi SSE 5.8 mph - N/A   Clear
5:55 AM 66.2 °F - 60.8 °F 83% 29.85 in 7.0 mi SSE 5.8 mph - N/A   Clear
6:15 AM 66.2 °F - 60.8 °F 83% 29.86 in 7.0 mi South 4.6 mph - N/A   Clear
6:35 AM 66.2 °F - 60.8 °F 83% 29.87 in 7.0 mi SSE 4.6 mph - N/A   Clear
6:55 AM 66.2 °F - 60.8 °F 83% 29.88 in 8.0 mi SSE 5.8 mph - N/A   Clear
7:15 AM 66.2 °F - 60.8 °F 83% 29.88 in 6.0 mi SSE 5.8 mph - N/A   Haze
7:35 AM 66.2 °F - 60.8 °F 83% 29.89 in 7.0 mi SE 5.8 mph - N/A   Clear
7:55 AM 66.2 °F - 62.6 °F 88% 29.89 in 5.0 mi South 4.6 mph - N/A   Haze
8:15 AM 69.8 °F - 62.6 °F 78% 29.90 in 6.0 mi SSE 6.9 mph - N/A   Haze
8:35 AM 69.8 °F - 62.6 °F 78% 29.90 in 5.0 mi South 10.4 mph 16.1 mph N/A   Haze
8:55 AM 71.6 °F - 62.6 °F 73% 29.90 in 6.0 mi South 8.1 mph - N/A   Haze
9:15 AM 71.6 °F - 62.6 °F 73% 29.90 in 6.0 mi South 9.2 mph 17.3 mph N/A   Haze
9:35 AM 73.4 °F - 62.6 °F 69% 29.90 in 6.0 mi South 12.7 mph 18.4 mph N/A   Haze
9:55 AM 73.4 °F - 62.6 °F 69% 29.91 in 5.0 mi SSW 11.5 mph 21.9 mph N/A   Haze
10:15 AM 73.4 °F - 62.6 °F 69% 29.91 in 6.0 mi South 15.0 mph 21.9 mph N/A   Haze
10:35 AM 73.4 °F - 62.6 °F 69% 29.90 in 6.0 mi South 12.7 mph 23.0 mph N/A   Haze
10:55 AM 73.4 °F - 62.6 °F 69% 29.91 in 6.0 mi South 15.0 mph 23.0 mph N/A   Haze
11:15 AM 75.2 °F - 62.6 °F 65% 29.90 in 7.0 mi South 13.8 mph 17.3 mph N/A   Scattered Clouds
11:35 AM 75.2 °F - 62.6 °F 65% 29.90 in 5.0 mi South 13.8 mph 17.3 mph N/A   Haze
11:55 AM 75.2 °F - 62.6 °F 65% 29.91 in 5.0 mi South 11.5 mph 18.4 mph N/A   Haze
12:15 PM 75.2 °F - 62.6 °F 65% 29.91 in 7.0 mi SSE 11.5 mph 19.6 mph N/A   Mostly Cloudy
12:35 PM 75.2 °F - 62.6 °F 65% 29.91 in 6.0 mi SSE 12.7 mph 20.7 mph N/A   Haze
12:55 PM 78.8 °F - 64.4 °F 61% 29.90 in 6.0 mi SSE 11.5 mph - N/A   Haze
1:15 PM 77.0 °F - 64.4 °F 65% 29.90 in 5.0 mi South 11.5 mph - N/A   Haze
1:35 PM 78.8 °F - 64.4 °F 61% 29.90 in 7.0 mi South 10.4 mph 16.1 mph N/A   Scattered Clouds
1:55 PM 78.8 °F - 64.4 °F 61% 29.90 in 6.0 mi South 9.2 mph - N/A   Haze
2:15 PM 80.6 °F 82.3 °F 64.4 °F 58% 29.90 in 6.0 mi South 10.4 mph 17.3 mph N/A   Haze
2:35 PM 80.6 °F 82.3 °F 64.4 °F 58% 29.89 in 7.0 mi South 10.4 mph - N/A   Clear
2:55 PM 78.8 °F - 64.4 °F 61% 29.89 in 6.0 mi South 10.4 mph 16.1 mph N/A   Haze
3:15 PM 80.6 °F 82.3 °F 64.4 °F 58% 29.88 in 6.0 mi SSE 9.2 mph 19.6 mph N/A   Haze
3:35 PM 80.6 °F 82.3 °F 64.4 °F 58% 29.88 in 5.0 mi South 9.2 mph 18.4 mph N/A   Haze
3:55 PM 80.6 °F 82.7 °F 66.2 °F 61% 29.87 in 7.0 mi SSE 11.5 mph 18.4 mph N/A   Partly Cloudy
4:15 PM 82.4 °F 83.9 °F 64.4 °F 54% 29.87 in 7.0 mi South 6.9 mph 16.1 mph N/A   Clear
4:35 PM 82.4 °F 83.9 °F 64.4 °F 54% 29.87 in 7.0 mi South 11.5 mph 17.3 mph N/A   Clear
4:55 PM 82.4 °F 83.9 °F 64.4 °F 54% 29.88 in 6.0 mi SSE 10.4 mph 19.6 mph N/A   Haze
5:15 PM 82.4 °F 83.9 °F 64.4 °F 54% 29.87 in 7.0 mi South 12.7 mph 18.4 mph N/A   Clear
5:35 PM 82.4 °F 83.9 °F 64.4 °F 54% 29.87 in 7.0 mi South 10.4 mph 18.4 mph N/A   Clear
5:55 PM 82.4 °F 83.9 °F 64.4 °F 54% 29.87 in 7.0 mi SSW 12.7 mph 18.4 mph N/A   Clear
6:15 PM 82.4 °F 83.9 °F 64.4 °F 54% 29.87 in 7.0 mi South 10.4 mph - N/A   Clear
6:35 PM 80.6 °F 82.3 °F 64.4 °F 58% 29.87 in 7.0 mi South 11.5 mph - N/A   Clear
6:55 PM 80.6 °F 82.3 °F 64.4 °F 58% 29.87 in 7.0 mi SSE 8.1 mph - N/A   Clear
7:15 PM 78.8 °F - 64.4 °F 61% 29.87 in 6.0 mi SE 4.6 mph - N/A   Haze
7:35 PM 78.8 °F - 64.4 °F 61% 29.86 in 8.0 mi Calm Calm - N/A   Clear
7:55 PM 77.0 °F - 64.4 °F 65% 29.87 in 8.0 mi SSE 5.8 mph - N/A   Clear
8:15 PM 75.2 °F - 64.4 °F 69% 29.87 in 8.0 mi Calm Calm - N/A   Clear
8:35 PM 73.4 °F - 64.4 °F 73% 29.88 in 8.0 mi Calm Calm - N/A   Clear
8:55 PM 71.6 °F - 64.4 °F 78% 29.88 in 8.0 mi Calm Calm - N/A   Clear
9:15 PM 69.8 °F - 66.2 °F 88% 29.89 in 8.0 mi Calm Calm - N/A   Clear
9:35 PM 69.8 °F - 64.4 °F 83% 29.89 in 7.0 mi Calm Calm - N/A   Clear
9:55 PM 69.8 °F - 64.4 °F 83% 29.91 in 8.0 mi Calm Calm - N/A   Clear
10:15 PM 68.0 °F - 64.4 °F 88% 29.91 in 7.0 mi Calm Calm - N/A   Clear
10:35 PM 66.2 °F - 64.4 °F 94% 29.91 in 7.0 mi Calm Calm - N/A   Clear
10:55 PM 66.2 °F - 64.4 °F 94% 29.91 in 7.0 mi Calm Calm - N/A   Clear
11:15 PM 66.2 °F - 64.4 °F 94% 29.90 in 7.0 mi Calm Calm - N/A   Clear
11:55 PM 66.2 °F - 64.4 °F 94% 29.90 in 7.0 mi Calm Calm - N/A   Scattered Clouds